Regional Weather Roundup
Issued by NWS

Home | Current Version | Previous Version | Graphics & Text | Print | Product List | Glossary On
Versions: 1 2 3 4 5 6 7 8 9 10 11 12 13 14 15 16 17 18 19 20 21 22 23 24 25 26 27 28 29 30 31 32 33 34 35 36 37 38 39 40 41 42 43 44 45 46 47 48 49 50
000
ASUS43 KDMX 060107
RWRIA

WEATHER ROUNDUP FOR IOWA
NATIONAL WEATHER SERVICE DES MOINES IA
800 PM CDT TUE MAY 05 2015

NOTE: "FAIR" INDICATES FEW OR NO CLOUDS BELOW 12,000 FEET WITH NO
SIGNIFICANT WEATHER AND/OR OBSTRUCTIONS TO VISIBILITY.

* - THESE STATIONS ARE NOT NWS STATIONS...THUS NOT UNDER NWS
QUALITY CONTROL.  THEY ALSO DO NOT REPORT WEATHER SUCH
AS PRECIPITATION OR FOG.

IAZ001>003-012>014-020>022-031>034-043>046-060200-
   NORTHWEST IOWA

CITY           SKY/WX    TMP DP  RH WIND       PRES   REMARKS
CARROLL *      PTCLDY    70  64  83 SE3       30.02S
CHEROKEE *     CLOUDY    64  64 100 E13G18    30.01S FOG
DENISON *      CLEAR     70  61  73 SE6       29.99S
LE MARS *      MOCLDY    73  57  56 S8        29.99R
ORANGE CITY *  HVY RAIN  64  61  88 E9G16     30.00R
SHELDON *      MOCLDY    63  63 100 E20G26    30.00S
SIOUX CITY     CLOUDY    73  58  59 SE8       29.97S
SPENCER        CLOUDY    61  59  93 E15       30.04S FOG
STORM LAKE *   CLOUDY    66  64  94 E14       30.03S FOG
$$

IAZ055>058-069>071-079>083-090>094-060200-
   SOUTHWEST IOWA

CITY           SKY/WX    TMP DP  RH WIND       PRES   REMARKS
ATLANTIC *     CLEAR     72  59  64 SE3       30.01S
AUDUBON *      CLEAR     70  61  73 CALM      30.03S
CLARINDA *     CLEAR     73  61  64 SE6       30.01S
COUNCIL BLFS * CLEAR     72  63  73 SE8       29.98F
CRESTON *      CLEAR     70  61  73 SE6       30.04R
HARLAN  *      CLEAR     72  61  68 SE8       30.03S
LAMONI         MOCLDY    75  58  55 SE5       30.03S
RED OAK *      CLEAR     72  61  68 E8        30.00S
SHENANDOAH *   CLEAR     72  63  73 E7        29.99S
$$

IAZ047>049-059>061-072>074-084-060200-
   CENTRAL IOWA

CITY           SKY/WX    TMP DP  RH WIND       PRES   REMARKS
AMES           CLOUDY    66  63  90 E9        30.05S FOG
ANKENY *       CLEAR     70  63  78 CALM      30.04R
CHARITON *     CLEAR     72  63  73 SE6       30.05R
DES MOINES     CLOUDY    75  59  57 SE7       30.04R
GRINNELL*      CLOUDY    68  64  88 E14       30.08R FOG
KNOXVILLE *    CLEAR     73  59  60 SE5       30.04S
MARSHALLTOWN   CLOUDY    64  62  93 E16       30.07R FOG
PELLA *        MOCLDY    72  64  78 SE3       30.06S
PERRY *          N/A     70  64  83 E7        30.03S
$$

IAZ004>006-015-016-023>025-035-036-060200-
   NORTH CENTRAL IOWA

CITY           SKY/WX    TMP DP  RH WIND       PRES   REMARKS
ALGONA *       CLOUDY    57  57 100 SE16      30.07S FOG
CLARION *      CLOUDY    59  59 100 E13G21    30.08R FOG
ESTHERVILLE    CLOUDY    57  56  96 SE15      30.06R FOG
FORT DODGE *   CLOUDY    63  59  88 E16       30.06S
MASON CITY     CLOUDY    55  54  96 E10       30.11F FOG
FOREST CITY *  CLOUDY    54  54 100 E8        30.10S FOG
IOWA FALLS *   CLOUDY    61  59  94 E14       30.09S FOG
$$

IAZ007>011-017>019-026>030-037>042-050>054-066-060200-
   NORTHEAST IOWA

CITY           SKY/WX    TMP DP  RH WIND       PRES   REMARKS
CEDAR RAPIDS   CLOUDY    61  60  97 E14G21    30.11R FOG
CHARLES CITY * CLOUDY    55  55 100 E12G17    30.13S FOG
CLINTON *      MOCLDY    59  55  88 E12       30.17R
DECORAH *      CLOUDY    54  54 100 SE9       30.15S FOG
DUBUQUE        CLOUDY    56  54  93 E9        30.16R FOG
MONTICELLO *   CLOUDY    59  59 100 E10       30.14S
OELWEIN *      CLOUDY    57  57 100 E14       30.13S FOG
WATERLOO       CLOUDY    58  56  93 E15       30.11R FOG
$$

IAZ064-065-067-068-078-060200-
   EAST CENTRAL IOWA

CITY           SKY/WX    TMP DP  RH WIND       PRES   REMARKS
DAVENPORT      CLOUDY    62  58  86 E13       30.14R FOG
IOWA CITY      CLOUDY    65  61  87 NE9       30.12R FOG
MT. PLEASANT * PTCLDY    72  61  68 SE5       30.08R
MUSCATINE *    PTCLDY    68  64  88 NE8       30.11R HAZE
QUAD CITIES    MOCLDY    65  60  84 E15       30.12R HAZE
$$

IAZ062-063-075>077-085>089-095>099-060200-
   SOUTHEAST IOWA

CITY           SKY/WX    TMP DP  RH WIND       PRES   REMARKS
BURLINGTON     PTCLDY    74  63  68 CALM      30.08R
FAIRFIELD *    CLEAR     72  61  68 SE5       30.07S
FORT MADISON * CLEAR     72  64  78 CALM      30.09R
KEOKUK *       CLEAR     72  63  73 E3        30.07R
OSKALOOSA *      N/A     70  66  88 E10       30.07R FOG
CENTERVILLE *  CLEAR     72  63  73 E5        30.07S
OTTUMWA        MOCLDY    74  60  61 E5        30.06R
WASHINGTON *   CLEAR     70  70 100 E13G18    30.08S FOG
$$

ABBREVIATIONS USED IN REMARKS
   TC - TEMPERATURES IN CELSIUS
  WCI - WIND CHILL INDEX
   HX - HEAT INDEX
  VSB - VISIBILITY
$$



USA.gov is the U.S. government's official web portal to all federal, state and local government web resources and services.